CW4066 Weather Reports


time (UTC)temp
C
wind
direction
speed
KPH
gust
KPH
rain 1hr
cm
rain 24hr
cm
rain mn
cm
humidity
%
barometer
mb
20260504081601 7 0 0.0 0.0 0.00 0.03 0.00 84 1004.3
20260504081057 8 0 0.0 0.0 0.00 0.03 0.00 83 1004.3
20260504080557 8 0 0.0 0.0 0.00 0.03 0.00 83 1004.4
20260504060120 10 0 0.0 3.2 0.00 0.03 0.00 79 1005.9
20260504050556 10 0 0.0 3.2 0.00 0.03 0.00 74 1006.2
20260504050117 11 0 0.0 3.2 0.00 0.03 0.00 74 1006.2
20260504045556 11 0 0.0 4.8 0.00 0.03 0.03 74 1006.2
20260504045058 11 0 0.0 4.8 0.00 0.03 0.03 74 1006.2
20260504044600 11 0 0.0 3.2 0.00 0.03 0.03 73 1006.2
20260504044059 11 0 0.0 3.2 0.00 0.03 0.03 72 1006.2
20260504043559 11 0 0.0 1.6 0.00 0.03 0.03 72 1006.2
20260504043111 11 0 0.0 0.0 0.00 0.03 0.03 72 1006.2
20260504042558 11 0 0.0 0.0 0.00 0.03 0.03 72 1006.2
20260504042057 11 0 0.0 1.6 0.00 0.03 0.03 72 1006.2
20260504041601 11 0 0.0 1.6 0.00 0.03 0.03 73 1006.2
20260504041057 11 0 0.0 0.0 0.00 0.03 0.03 73 1006.1
20260504040558 11 0 0.0 0.0 0.00 0.03 0.03 73 1006.1
20260504040109 11 0 0.0 0.0 0.00 0.03 0.03 73 1006.1
20260504035558 11 0 0.0 0.0 0.00 0.03 0.03 72 1006.1
20260504035059 11 0 0.0 4.8 0.00 0.03 0.03 72 1006.0
20260504034601 11 0 0.0 4.8 0.00 0.03 0.03 72 1006.1
20260504034058 11 214 0.0 1.6 0.00 0.03 0.03 72 1006.1
20260504033558 11 0 0.0 1.6 0.00 0.03 0.03 72 1006.1
20260504033105 12 0 0.0 1.6 0.00 0.03 0.03 72 1006.2
20260504032558 12 0 0.0 1.6 0.00 0.03 0.03 72 1006.4
20260504032059 12 0 0.0 1.6 0.00 0.03 0.03 72 1006.4
20260504031604 12 0 0.0 1.6 0.00 0.03 0.03 72 1006.3
20260504031054 12 0 0.0 3.2 0.00 0.03 0.03 72 1006.5
20260504030557 12 0 0.0 4.8 0.00 0.03 0.03 71 1006.5
20260504030056 12 0 0.0 6.4 0.00 0.03 0.03 71 1006.4
20260504025555 12 0 0.0 6.4 0.00 0.03 0.03 70 1006.5
20260504025055 12 188 0.0 6.4 0.00 0.03 0.03 70 1006.5
20260504024557 12 193 0.0 8.0 0.00 0.03 0.03 70 1006.5
20260504024056 12 0 0.0 8.0 0.00 0.03 0.03 70 1006.5
20260504023557 12 0 0.0 8.0 0.00 0.03 0.03 70 1006.5
20260504023058 12 0 0.0 8.0 0.00 0.03 0.03 69 1006.4
20260504022555 12 0 0.0 4.8 0.00 0.03 0.03 69 1006.5
20260504022054 13 0 0.0 4.8 0.00 0.03 0.03 68 1006.5
20260504021558 13 0 0.0 4.8 0.00 0.03 0.03 67 1006.5
20260504021057 13 0 0.0 4.8 0.00 0.03 0.03 67 1006.5
20260504020557 13 0 0.0 4.8 0.00 0.03 0.03 66 1006.5
20260504020057 13 0 0.0 4.8 0.00 0.03 0.03 66 1006.3
20260504015559 13 0 0.0 4.8 0.00 0.03 0.03 65 1006.2
20260504015058 13 0 0.0 4.8 0.00 0.03 0.03 64 1006.1
20260504014603 13 0 0.0 4.8 0.00 0.03 0.03 64 1006.1
20260504014055 14 207 0.0 6.4 0.00 0.03 0.03 63 1006.1
20260504013557 14 0 0.0 6.4 0.00 0.03 0.03 63 1005.9
20260504013107 14 0 0.0 9.7 0.00 0.03 0.03 62 1005.9
20260504012555 14 0 0.0 9.7 0.00 0.03 0.03 61 1005.9
20260504012055 15 0 1.6 9.7 0.00 0.03 0.03 60 1005.9
20260504011559 15 0 1.6 8.0 0.00 0.03 0.03 60 1005.8
20260504011058 15 151 0.0 3.2 0.00 0.03 0.03 60 1005.8
20260504010554 15 0 0.0 3.2 0.00 0.03 0.03 59 1005.8
20260504010115 15 0 0.0 3.2 0.00 0.03 0.03 59 1005.7
20260504005557 16 0 0.0 6.4 0.00 0.03 0.03 58 1005.7
20260504005058 16 0 0.0 6.4 0.00 0.03 0.03 57 1005.7
20260504004558 16 0 0.0 3.2 0.00 0.03 0.03 57 1005.8
20260504004100 16 0 0.0 4.8 0.00 0.03 0.03 56 1005.7
20260504003557 16 0 0.0 4.8 0.00 0.03 0.03 55 1005.7
20260504003056 16 0 0.0 8.0 0.00 0.03 0.03 55 1005.8
20260504002557 17 0 0.0 12.9 0.00 0.03 0.03 55 1005.8
20260504002057 17 0 1.6 14.5 0.00 0.03 0.03 54 1005.8
20260504001602 17 207 1.6 16.1 0.00 0.03 0.03 54 1005.9
20260504001054 17 0 3.2 16.1 0.00 0.03 0.03 53 1005.8
20260504000555 17 59 4.8 16.1 0.00 0.03 0.03 52 1005.8
20260504000059 17 0 4.8 16.1 0.00 0.03 0.03 50 1005.9
20260503235558 18 200 1.6 16.1 0.00 0.03 0.03 52 1005.8
20260503235057 18 243 1.6 19.3 0.00 0.03 0.03 50 1005.7
20260503234558 18 188 4.8 19.3 0.00 0.03 0.03 50 1005.8
20260503234058 18 246 1.6 12.9 0.00 0.03 0.03 50 1005.8
20260503233558 18 202 1.6 16.1 0.00 0.03 0.03 51 1005.9
20260503233103 18 0 1.6 17.7 0.00 0.03 0.03 50 1005.9
20260503232557 18 178 6.4 20.9 0.00 0.03 0.03 49 1005.9
20260503232057 18 186 4.8 22.5 0.00 0.03 0.03 48 1005.8
20260503231555 18 210 4.8 22.5 0.00 0.03 0.03 49 1005.8
20260503231058 18 223 4.8 19.3 0.00 0.03 0.03 46 1005.8
20260503230557 18 246 8.0 24.1 0.00 0.03 0.03 45 1005.9
20260503230058 18 0 3.2 24.1 0.00 0.03 0.03 48 1005.9
20260503225601 18 260 6.4 30.6 0.00 0.03 0.03 48 1006.0
20260503225055 18 165 4.8 30.6 0.00 0.03 0.03 46 1006.0
20260503224601 18 232 8.0 20.9 0.00 0.03 0.03 42 1006.0
20260503224100 19 195 8.0 19.3 0.00 0.03 0.03 44 1006.1
20260503223558 19 238 3.2 20.9 0.00 0.03 0.03 45 1006.1
20260503223059 19 157 6.4 22.5 0.00 0.03 0.03 42 1006.2
20260503222557 19 231 8.0 22.5 0.00 0.03 0.03 41 1006.2
20260503222059 19 217 8.0 24.1 0.00 0.03 0.03 42 1006.2
20260503221601 19 205 3.2 24.1 0.00 0.03 0.03 41 1006.3
20260503221055 19 159 4.8 20.9 0.00 0.03 0.03 42 1006.4
20260503220555 19 202 4.8 17.7 0.00 0.03 0.03 42 1006.4
20260503220104 19 162 8.0 17.7 0.00 0.03 0.03 43 1006.4
20260503215554 19 248 4.8 17.7 0.00 0.03 0.03 41 1006.4
20260503215057 19 0 4.8 16.1 0.00 0.03 0.03 40 1006.5
20260503214558 19 167 4.8 17.7 0.00 0.03 0.03 40 1006.6
20260503214057 19 232 3.2 17.7 0.00 0.03 0.03 41 1006.6
20260503213558 19 146 6.4 22.5 0.00 0.03 0.03 42 1006.6
20260503213055 18 229 8.0 22.5 0.00 0.03 0.03 39 1006.7
20260503212558 19 179 6.4 22.5 0.00 0.03 0.03 39 1006.8
20260503212057 19 134 4.8 22.5 0.00 0.03 0.03 39 1006.8
20260503211555 19 117 8.0 25.7 0.00 0.03 0.03 38 1007.1
20260503211059 19 182 6.4 25.7 0.00 0.03 0.03 41 1007.1
20260503210555 19 232 6.4 25.7 0.00 0.03 0.03 40 1007.1
20260503210100 19 222 4.8 27.4 0.00 0.03 0.03 38 1007.1
20260503205559 19 201 6.4 27.4 0.00 0.03 0.03 40 1007.2
20260503205055 19 153 6.4 27.4 0.00 0.03 0.03 41 1007.2
20260503204609 19 202 8.0 24.1 0.00 0.03 0.03 39 1007.5
20260503204058 18 131 8.0 20.9 0.00 0.03 0.03 39 1007.5
20260503203557 18 164 8.0 29.0 0.00 0.03 0.03 39 1007.7
20260503203107 18 194 6.4 29.0 0.00 0.03 0.03 43 1007.7
20260503202559 18 196 6.4 24.1 0.00 0.03 0.03 44 1007.9
20260503202058 18 188 6.4 25.7 0.00 0.03 0.03 43 1008.1
20260503201558 18 148 4.8 25.7 0.00 0.03 0.03 43 1008.1
20260503201057 18 205 8.0 25.7 0.00 0.03 0.03 47 1008.2
20260503200555 18 132 4.8 24.1 0.00 0.03 0.03 46 1008.2
20260503200057 18 143 4.8 19.3 0.00 0.03 0.03 47 1008.3
20260503195558 18 204 3.2 22.5 0.00 0.03 0.03 43 1008.4
20260503195057 18 144 8.0 22.5 0.00 0.03 0.03 40 1008.3
20260503194614 18 173 6.4 22.5 0.00 0.03 0.03 40 1008.5
20260503194057 18 169 8.0 27.4 0.00 0.03 0.03 43 1008.5
20260503193556 18 175 6.4 27.4 0.00 0.03 0.03 44 1008.7
20260503193100 18 179 4.8 17.7 0.00 0.03 0.03 49 1008.7
20260503192558 18 206 3.2 24.1 0.00 0.03 0.03 49 1008.7
20260503192056 17 150 8.0 24.1 0.00 0.03 0.03 50 1008.8
20260503191603 17 144 8.0 22.5 0.00 0.03 0.03 47 1008.8
20260503191057 17 192 6.4 20.9 0.00 0.03 0.03 51 1008.9
20260503190558 17 211 3.2 17.7 0.00 0.03 0.03 55 1009.0
20260503185558 16 173 6.4 19.3 0.00 0.03 0.03 55 1009.0
20260503185058 16 150 9.7 19.3 0.00 0.03 0.03 54 1009.2
20260503184600 16 176 6.4 19.3 0.00 0.03 0.03 56 1009.2
20260503184057 15 154 9.7 19.3 0.00 0.03 0.03 54 1009.3
20260503183556 15 128 9.7 19.3 0.00 0.03 0.03 57 1009.4
20260503183106 15 162 6.4 16.1 0.00 0.03 0.03 60 1009.5
20260503182558 14 176 6.4 16.1 0.00 0.03 0.03 61 1009.6
20260503182056 13 111 3.2 14.5 0.00 0.03 0.03 61 1009.6
20260503181558 13 117 6.4 16.1 0.00 0.03 0.03 60 1009.8
20260503181058 13 148 4.8 20.9 0.00 0.03 0.03 61 1010.1
20260503180558 13 49 3.2 20.9 0.00 0.03 0.03 62 1010.1
20260503180107 12 67 6.4 17.7 0.03 0.03 0.03 64 1010.3
20260503175557 12 0 3.2 14.5 0.03 0.03 0.03 67 1010.3
20260503175057 12 83 3.2 14.5 0.03 0.03 0.03 68 1010.4
20260503174557 12 120 3.2 9.7 0.03 0.03 0.03 69 1010.3
20260503174059 11 119 3.2 11.3 0.03 0.03 0.03 71 1010.5
20260503173559 11 78 4.8 11.3 0.03 0.03 0.03 72 1011.0
20260503173154 11 113 1.6 11.3 0.03 0.03 0.03 73 1011.1
20260503172559 11 192 4.8 11.3 0.03 0.03 0.03 74 1011.4
20260503172058 11 134 3.2 11.3 0.03 0.03 0.03 75 1011.5
20260503171059 11 141 3.2 19.3 0.03 0.03 0.03 76 1011.9
20260503170558 11 170 4.8 19.3 0.03 0.03 0.03 74 1012.2
20260503150557 11 197 11.3 32.2 0.00 0.00 0.00 61 1013.7
20260503131058 7 232 3.2 12.9 0.00 0.00 0.00 73 1014.3
20260503130559 7 172 0.0 12.9 0.00 0.00 0.00 76 1014.2
20260503130110 7 0 3.2 12.9 0.00 0.00 0.00 76 1014.2
20260503120109 6 182 0.0 11.3 0.00 0.00 0.00 79 1014.1
20260503110558 5 175 0.0 8.0 0.00 0.00 0.00 84 1013.8
20260503100113 3 221 0.0 4.8 0.00 0.00 0.00 82 1014.0